This demonstration page uses our WeatherBlox Daily Observations layout. Learn more.

Left ArrowRight Arrow

38.80484, -77.04692

Hourly Observations for October 15, 2019

Temp ( °F °C ) Dew Point ( °F °C ) Humidity (%) Winds ( mph kmh ) Pressure ( in mb ) Visibility ( mi km ) Precip ( " mm )
12:52 am 00:52 Clear 60 15.6 45 7.2 58 58 N 5 7 30.09 1019 10 16 0.00 0.00
1:52 am 01:52 Clear 60 15.6 50 10 70 70 NNE 3 6 30.11 1020 10 16 0.00 0.00
2:52 am 02:52 Clear 56 13.3 47 8.3 72 72 Calm 30.11 1020 10 16 0.00 0.00
3:52 am 03:52 Clear 55 12.8 46 7.8 72 72 Calm 30.12 1020 10 16 0.00 0.00
4:52 am 04:52 Clear 53 11.7 48 8.9 83 83 N 5 7 30.13 1020 10 16 0.00 0.00
5:52 am 05:52 Clear 53 11.7 47 8.3 80 80 N 3 6 30.14 1021 10 16 0.00 0.00
6:52 am 06:52 Mostly Clear 53 11.7 47 8.3 80 80 NNE 5 7 30.16 1021 10 16 0.00 0.00
7:52 am 07:52 Sunny 53 11.7 47 8.3 80 80 N 5 7 30.17 1022 10 16 0.00 0.00
8:52 am 08:52 Mostly Sunny 58 14.4 49 9.4 72 72 N 3 6 30.19 1023 10 16 0.00 0.00
9:52 am 09:52 Mostly Sunny 62 16.7 47 8.3 58 58 Calm 30.19 1022 10 16 0.00 0.00
10:52 am 10:52 Mostly Sunny 65 18.3 44 6.7 47 47 NNE 6 9 30.18 1022 10 16 0.00 0.00
11:52 am 11:52 Mostly Sunny 68 20 43 6.1 40 40 VRB 3 6 30.16 1022 10 16 0.00 0.00
12:52 pm 12:52 Mostly Sunny 69 20.6 40 4.4 35 35 VRB 5 7 30.16 1021 10 16 0.00 0.00
1:52 pm 13:52 Mostly Sunny 71 21.7 40 4.4 32 32 ENE 6 9 30.13 1020 10 16 0.00 0.00
2:52 pm 14:52 Mostly Sunny 71 21.7 40 4.4 32 32 ESE 3 6 30.10 1019 10 16 0.00 0.00
3:52 pm 15:52 Mostly Sunny 71 21.7 41 5 34 34 ESE 5 7 30.08 1019 10 16 0.00 0.00
4:52 pm 16:52 Mostly Sunny 72 22.2 45 7.2 38 38 SSE 3 6 30.05 1018 10 16 0.00 0.00
5:52 pm 17:52 Partly Cloudy 69 20.6 45 7.2 42 42 SE 10 17 30.05 1018 10 16 0.00 0.00
6:52 pm 18:52 Partly Cloudy 66 18.9 43 6.1 43 43 SE 8 13 30.06 1018 10 16 0.00 0.00
7:52 pm 19:52 Partly Cloudy 64 17.8 45 7.2 50 50 SE 7 11 30.06 1018 10 16 0.00 0.00
8:52 pm 20:52 Mostly Clear 62 16.7 45 7.2 54 54 SSE 6 9 30.04 1017 10 16 0.00 0.00
9:52 pm 21:52 Mostly Cloudy 63 17.2 48 8.9 58 58 SSE 10 17 30.04 1017 10 16 0.00 0.00
10:52 pm 22:52 Mostly Cloudy 61 16.1 50 10 67 67 S 10 17 30.03 1017 10 16 0.00 0.00
11:52 pm 23:52 Cloudy 60 15.6 52 11.1 75 75 S 9 15 30.02 1017 10 16 0.00 0.00

Powered by AerisWeather